Location: Oshawa
(43.9000°N, 78.8670°W)
Time: 15:59:04
(UTC-05:00)

Amateur Radio Satellites - All Passes

Search period start: 19 February 2017 15:29
Search period end: 20 February 2017 15:29
Location: Oshawa, 43.9000°N, 78.8670°W

Satellite Date Start Highest point End Downlink Frequencies (MHz)
Time Altitude Azimuth
Tancredo 1 19 Feb 15:32:55 15:35:58 37° 22° (NNE) 15:39:00 437.200
AO-85 19 Feb 15:36:40 15:39:56 25° 245° (WSW) 15:43:13 145.980
CUBESAT XI-V 19 Feb 15:45:57 15:46:44 10° 87° (E) 15:47:31 437.345
BEESAT 3 19 Feb 15:53:04 15:56:38 30° 47° (NE) 16:00:11 437.485
BEESAT 2 19 Feb 16:16:28 16:19:49 24° 44° (NE) 16:23:09 435.950
KKS-1 19 Feb 16:21:50 16:26:03 40° 99° (E) 16:30:16 437.445
XW-2F 19 Feb 16:23:00 16:24:34 12° 63° (ENE) 16:26:09 145.980 - 146.000
XW-2D 19 Feb 16:23:14 16:25:02 13° 63° (ENE) 16:26:50 145.860 - 145.880
DOVE 4 19 Feb 16:24:33 16:26:59 15° 63° (ENE) 16:29:25 437.250
XW-2B 19 Feb 16:27:49 16:29:53 14° 64° (ENE) 16:31:57 145.730 - 145.750
ISS 19 Feb 16:28:07 16:31:25 88° 196° (SSW) 16:34:41 437.550
KAITUO 1B 19 Feb 16:29:34 16:31:06 12° 63° (ENE) 16:32:39 145.475/437.950
XW-2C 19 Feb 16:35:34 16:38:08 17° 66° (ENE) 16:40:43 145.795 - 145.815
MOZHAYETS 4 19 Feb 16:39:04 16:43:19 37° 291° (WNW) 16:47:32
LilacSat-2 19 Feb 16:44:38 16:47:41 22° 67° (ENE) 16:50:45 437.200
ITUPSAT 1 19 Feb 16:46:17 16:49:04 16° 300° (WNW) 16:51:52 437.325
M-CUBED/EXP-1 PRIME 19 Feb 16:46:55 16:49:17 16° 100° (E) 16:51:45 437.505
BEESAT 19 Feb 16:58:16 17:00:05 12° 302° (WNW) 17:01:55 436.000
AO-7 19 Feb 17:04:02 17:08:21 15° 273° (W) 17:12:42 .
HO-68 19 Feb 17:05:14 17:09:43 18° 52° (NE) 17:14:11 435.675
Tancredo 1 19 Feb 17:09:17 17:12:16 35° 220° (SW) 17:15:14 437.200
NUDT-PHONESAT 19 Feb 17:10:31 17:13:55 33° 71° (ENE) 17:17:21 437.300
STARS 19 Feb 17:14:34 17:18:58 67° 102° (ESE) 17:23:23 437.465
CUTE-I 19 Feb 17:16:33 17:21:43 54° 70° (ENE) 17:26:55 437.470
RS-15 19 Feb 17:16:34 17:26:34 33° 104° (ESE) 17:36:51 29.354- 29.394
PCSat 19 Feb 17:18:16 17:23:18 42° 113° (ESE) 17:28:24 145.827
CUBESAT XI-V 19 Feb 17:20:05 17:24:43 82° 283° (WNW) 17:29:17 437.345
BEESAT 3 19 Feb 17:30:42 17:34:13 29° 244° (WSW) 17:37:42 437.485
BEESAT 2 19 Feb 17:53:56 17:57:44 40° 243° (WSW) 18:01:31 435.950
XW-2F 19 Feb 17:54:28 17:58:14 58° 260° (W) 18:02:03 145.980 - 146.000
XW-2D 19 Feb 17:55:01 17:58:47 54° 260° (W) 18:02:35 145.860 - 145.880
KKS-1 19 Feb 17:58:58 18:02:22 22° 295° (WNW) 18:05:45 437.445
XW-2B 19 Feb 17:59:57 18:03:40 48° 261° (W) 18:07:26 145.730 - 145.750
DOVE 4 19 Feb 18:00:16 18:04:19 49° 261° (W) 18:08:22 437.250
KAITUO 1B 19 Feb 18:00:55 18:04:39 57° 260° (W) 18:08:25 145.475/437.950
CUTE 1.7 + AOD 2 19 Feb 18:03:07 18:06:20 21° 66° (ENE) 18:09:33 437.475
ISS 19 Feb 18:06:05 18:07:24 12° 229° (SW) 18:08:43 437.550
XW-2C 19 Feb 18:08:28 18:12:03 38° 262° (W) 18:15:41 145.795 - 145.815
LilacSat-2 19 Feb 18:18:27 18:21:50 28° 264° (W) 18:25:15 437.200
M-CUBED/EXP-1 PRIME 19 Feb 18:20:33 18:23:50 37° 294° (WNW) 18:27:22 437.505
STRAND 1 19 Feb 18:21:20 18:23:38 13° 88° (E) 18:25:54 437.568
XW-2A 19 Feb 18:34:39 18:38:00 67° 75° (ENE) 18:41:24 145.665 - 145.685
ZACube-1 19 Feb 18:42:45 18:43:25 10° 58° (ENE) 18:44:05 437.345
NUDT-PHONESAT 19 Feb 18:45:22 18:47:57 18° 267° (W) 18:50:33 437.300
CUBEBUG 2 19 Feb 18:47:56 18:51:39 28° 67° (ENE) 18:55:30 437.445
HO-68 19 Feb 18:49:11 18:56:22 80° 71° (ENE) 19:03:34 435.675
STARS 19 Feb 18:52:29 18:54:47 14° 299° (WNW) 18:57:05 437.465
CUTE-I 19 Feb 18:58:08 19:02:05 21° 268° (W) 19:06:04 437.470
CUBESAT XI-V 19 Feb 19:00:50 19:01:17 10° 302° (WNW) 19:01:44 437.345
PCSat 19 Feb 19:01:55 19:06:48 33° 312° (NW) 19:11:43 145.827
SEEDS 19 Feb 19:11:50 19:16:04 74° 75° (ENE) 19:20:19 437.485
AAUSAT CUBESAT 2 19 Feb 19:21:02 19:25:02 46° 73° (ENE) 19:29:02 437.432
RS-15 19 Feb 19:25:54 19:37:55 78° 307° (NW) 19:50:24 29.354- 29.394
AO-73 19 Feb 19:31:33 19:35:20 29° 67° (ENE) 19:39:11 145.935
CUTE 1.7 + AOD 2 19 Feb 19:37:55 19:41:55 38° 263° (W) 19:45:56 437.475
UWE-3 19 Feb 19:38:36 19:42:54 60° 73° (ENE) 19:47:22 435.000/436.395/437.385
Oscar 11 19 Feb 19:46:29 19:50:27 35° 70° (ENE) 19:54:27 .
STRAND 1 19 Feb 19:58:14 20:03:25 81° 286° (WNW) 20:08:34 437.568
YUBILEINY 19 Feb 20:00:44 20:04:39 13° 53° (NE) 20:08:32 435.215
ZACube-1 19 Feb 20:14:31 20:18:54 86° 77° (ENE) 20:23:26 437.345
DELFI C3 19 Feb 20:17:40 20:20:52 24° 68° (ENE) 20:24:04 145.870
CUBEBUG 2 19 Feb 20:24:25 20:28:12 29° 265° (W) 20:32:07 437.445
HO-68 19 Feb 20:39:50 20:44:50 20° 270° (W) 20:49:52 435.675
SEEDS 19 Feb 20:51:43 20:52:15 10° 272° (W) 20:52:47 437.485
AAUSAT CUBESAT 2 19 Feb 20:58:09 21:00:44 16° 269° (W) 21:03:19 437.432
AO-73 19 Feb 21:07:40 21:11:29 29° 265° (W) 21:15:25 145.935
UNISAT 6 19 Feb 21:15:53 21:18:36 15° 90° (E) 21:21:19 437.425
UWE-3 19 Feb 21:17:32 21:19:48 14° 271° (W) 21:22:07 435.000/436.395/437.385
TIGRISAT 19 Feb 21:18:16 21:20:57 15° 90° (E) 21:23:36 435.000
Oscar 11 19 Feb 21:23:15 21:26:40 22° 267° (W) 21:30:07 .
PRISM 19 Feb 21:27:42 21:31:35 42° 99° (E) 21:35:26 437.425
STRAND 1 19 Feb 21:39:47 21:41:46 12° 304° (NW) 21:43:44 437.568
RS-15 19 Feb 21:42:00 21:52:48 34° 336° (NNW) 22:03:46 29.354- 29.394
DELFI C3 19 Feb 21:52:06 21:55:33 28° 264° (W) 21:59:01 145.870
YUBILEINY 19 Feb 21:54:55 22:03:36 62° 77° (ENE) 22:12:11 435.215
FO-29 19 Feb 22:11:30 22:18:27 34° 92° (E) 22:24:55 435.910
ESTCUBE 1 19 Feb 22:21:10 22:25:25 42° 70° (ENE) 22:29:42 437.505/2401.250
SO-50 19 Feb 22:32:01 22:33:09 11° 107° (ESE) 22:34:17 436.795
SPROUT 19 Feb 22:36:13 22:38:56 17° 63° (ENE) 22:41:39 437.525
AIST 2D 19 Feb 22:46:02 22:48:15 15° 92° (E) 22:50:27 435.315
UNISAT 6 19 Feb 22:51:02 22:55:43 62° 287° (WNW) 23:00:20 437.425
TIGRISAT 19 Feb 22:53:22 22:58:02 63° 287° (WNW) 23:02:40 435.000
PRISM 19 Feb 23:03:49 23:06:33 18° 296° (WNW) 23:09:18 437.425
VELOX 1 19 Feb 23:14:20 23:18:35 52° 72° (ENE) 23:22:52 145.980
DX 1 19 Feb 23:27:28 23:31:21 33° 68° (ENE) 23:35:14 434.975-435.025
O/OREOS (USA 219) 19 Feb 23:30:02 23:33:59 32° 105° (ESE) 23:37:59 437.305
DUCHIFAT 1 19 Feb 23:30:35 23:34:15 28° 95° (E) 23:37:55 145.980
EO-79 19 Feb 23:33:38 23:37:35 35° 97° (E) 23:41:32 145.935-145.965
POLYITAN 1 19 Feb 23:48:56 23:53:10 53° 100° (E) 23:57:21 437.675
QB50P2 19 Feb 23:51:35 23:55:52 61° 101° (E) 00:00:05 145.880/145.840
50 SAT 19 Feb 23:51:56 23:55:28 82° 258° (WSW) 23:59:01 437.505
UKube-1 19 Feb 23:52:11 23:56:16 43° 70° (ENE) 00:00:21 .
YUBILEINY 19 Feb 23:52:33 23:59:46 30° 278° (W) 00:06:58 435.215
NANOSAT C BR1 19 Feb 23:54:32 23:58:46 56° 101° (E) 00:02:57 145.865
FO-29 19 Feb 23:56:07 00:03:43 55° 292° (WNW) 00:10:49 435.910
ESTCUBE 1 19 Feb 23:59:02 00:02:24 20° 267° (W) 00:05:46 437.505/2401.250
RS-15 19 Feb 23:59:59 00:10:18 29° 11° (N) 00:20:30 29.354- 29.394
SO-50 20 Feb 00:08:13 00:12:54 88° 128° (SE) 00:17:33 436.795
SPROUT 20 Feb 00:10:21 00:14:28 49° 261° (W) 00:18:37 437.525
AIST 2D 20 Feb 00:18:20 00:21:36 34° 288° (WNW) 00:24:51 435.315
PCSat 20 Feb 00:22:58 00:24:52 12° 30° (NNE) 00:26:45 145.827
ITUPSAT 1 20 Feb 00:40:29 00:42:31 13° 58° (ENE) 00:44:32 437.325
BEESAT 20 Feb 00:50:26 00:53:17 16° 60° (ENE) 00:56:07 436.000
VELOX 1 20 Feb 00:52:42 00:55:21 16° 269° (W) 00:58:00 145.980
BUGSAT 1 20 Feb 00:53:08 00:57:22 79° 105° (ESE) 01:01:36 437.445
DX 1 20 Feb 01:04:04 01:07:34 24° 265° (W) 01:11:05 434.975-435.025
DUCHIFAT 1 20 Feb 01:06:14 01:09:52 28° 292° (WNW) 01:13:30 145.980
O/OREOS (USA 219) 20 Feb 01:09:32 01:13:24 28° 303° (WNW) 01:17:17 437.305
EO-79 20 Feb 01:09:49 01:13:09 22° 294° (WNW) 01:16:29 145.935-145.965
Gurwin Techsat 1B 20 Feb 01:24:40 01:29:05 26° 94° (E) 01:33:29 435.225
POLYITAN 1 20 Feb 01:25:51 01:28:32 16° 297° (WNW) 01:31:11 437.675
QB50P2 20 Feb 01:28:51 01:31:10 14° 298° (WNW) 01:33:28 145.880/145.840
UKube-1 20 Feb 01:29:33 01:32:30 18° 267° (W) 01:35:27 .
Oscar 19 20 Feb 01:29:36 01:34:35 50° 100° (E) 01:39:32 437.125/150
NANOSAT C BR1 20 Feb 01:31:32 01:34:01 15° 297° (WNW) 01:36:31 145.865
FO-29 20 Feb 01:43:37 01:46:59 13° 313° (NW) 01:50:18 435.910
SO-50 20 Feb 01:50:53 01:53:59 17° 323° (NW) 01:57:05 436.795
PCSat 20 Feb 02:04:25 02:09:40 47° 52° (NE) 02:14:54 145.827
MOZHAYETS 4 20 Feb 02:05:22 02:09:17 27° 67° (ENE) 02:13:12
RS-15 20 Feb 02:14:21 02:26:29 55° 43° (NE) 02:38:09 29.354- 29.394
ITUPSAT 1 20 Feb 02:14:49 02:19:38 88° 265° (W) 02:24:29 437.325
BEESAT 20 Feb 02:25:45 02:30:30 68° 258° (WSW) 02:35:18 436.000
BUGSAT 1 20 Feb 02:30:51 02:32:06 11° 300° (WNW) 02:33:22 437.445
CUBESAT XI-V 20 Feb 02:49:48 02:52:11 14° 60° (ENE) 02:54:34 437.345
Gurwin Techsat 1B 20 Feb 03:04:09 03:09:11 43° 291° (WNW) 03:14:11 435.225
AO-7 20 Feb 03:06:20 03:13:45 35° 97° (E) 03:21:06 .
Oscar 19 20 Feb 03:09:39 03:13:34 23° 297° (WNW) 03:17:29 437.125/150
KKS-1 20 Feb 03:20:59 03:25:10 44° 70° (ENE) 03:29:23 437.445
ITAMSAT 1 20 Feb 03:28:43 03:33:57 65° 102° (ESE) 03:39:08 435.822/435.867
M-CUBED/EXP-1 PRIME 20 Feb 03:34:29 03:37:13 24° 64° (ENE) 03:39:54 437.505
MOZHAYETS 4 20 Feb 03:42:07 03:46:19 33° 264° (W) 03:50:32
PCSat 20 Feb 03:48:16 03:52:50 28° 251° (WSW) 03:57:21 145.827
STARS 20 Feb 04:12:09 04:16:29 70° 74° (ENE) 04:20:51 437.465
CUBESAT XI-V 20 Feb 04:24:17 04:28:58 74° 258° (WSW) 04:33:39 437.345
RS-15 20 Feb 04:27:22 04:39:08 55° 248° (WSW) 04:50:26 29.354- 29.394
AO-7 20 Feb 04:58:46 05:06:51 58° 296° (WNW) 05:14:54 .
KKS-1 20 Feb 04:58:51 05:01:56 19° 267° (W) 05:05:04 437.445
M-CUBED/EXP-1 PRIME 20 Feb 05:09:13 05:11:42 19° 259° (W) 05:14:09 437.505
ITAMSAT 1 20 Feb 05:09:20 05:12:53 19° 300° (WNW) 05:16:26 435.822/435.867
XW-2F 20 Feb 05:26:52 05:28:43 13° 90° (E) 05:30:34 145.980 - 146.000
XW-2D 20 Feb 05:27:30 05:29:37 14° 91° (E) 05:31:43 145.860 - 145.880
XW-2B 20 Feb 05:32:11 05:34:33 16° 92° (E) 05:36:54 145.730 - 145.750
KAITUO 1B 20 Feb 05:32:29 05:34:12 13° 90° (E) 05:35:56 145.475/437.950
CUTE-I 20 Feb 05:33:00 05:36:48 19° 91° (E) 05:40:34 437.470
STRAND 1 20 Feb 05:37:48 05:41:46 23° 63° (ENE) 05:45:44 437.568
XW-2C 20 Feb 05:40:10 05:43:00 19° 93° (E) 05:45:50 145.795 - 145.815
LilacSat-2 20 Feb 05:50:07 05:53:25 26° 95° (E) 05:56:40 437.200
AO-85 20 Feb 05:51:06 05:55:38 64° 121° (ESE) 05:59:51 145.980
STARS 20 Feb 05:51:48 05:53:18 12° 271° (W) 05:54:49 437.465
DOVE 4 20 Feb 05:56:37 06:00:50 36° 98° (E) 06:05:14 437.250
NUDT-PHONESAT 20 Feb 06:13:21 06:16:55 38° 98° (E) 06:20:26 437.300
HO-68 20 Feb 06:18:13 06:21:12 13° 86° (E) 06:24:10 435.675
RS-15 20 Feb 06:46:45 06:48:27 10° 270° (W) 06:50:09 29.354- 29.394
AO-7 20 Feb 06:53:40 06:57:53 15° 318° (NW) 07:02:06 .
SEEDS 20 Feb 06:56:41 06:57:49 11° 88° (E) 06:58:57 437.485
SO-50 20 Feb 06:58:42 07:01:57 19° 38° (NE) 07:05:10 436.795
XW-2F 20 Feb 06:59:27 07:03:09 47° 287° (WNW) 07:06:48 145.980 - 146.000
XW-2D 20 Feb 07:00:23 07:04:03 43° 287° (WNW) 07:07:41 145.860 - 145.880
KAITUO 1B 20 Feb 07:04:51 07:08:31 47° 287° (WNW) 07:12:08 145.475/437.950
XW-2B 20 Feb 07:05:19 07:08:56 39° 288° (WNW) 07:12:30 145.730 - 145.750
CUTE-I 20 Feb 07:11:55 07:17:14 60° 289° (WNW) 07:22:30 437.470
XW-2C 20 Feb 07:13:50 07:17:16 31° 290° (WNW) 07:20:40 145.795 - 145.815
STRAND 1 20 Feb 07:15:38 07:20:36 50° 260° (W) 07:25:37 437.568
CUTE 1.7 + AOD 2 20 Feb 07:21:17 07:25:04 31° 96° (E) 07:28:50 437.475
BEESAT 3 20 Feb 07:21:35 07:24:59 29° 115° (ESE) 07:28:26 437.485
LilacSat-2 20 Feb 07:24:27 07:27:36 24° 292° (WNW) 07:30:43 437.200
XW-2A 20 Feb 07:27:54 07:31:20 58° 100° (E) 07:34:45 145.665 - 145.685
UWE-3 20 Feb 07:28:40 07:30:35 12° 88° (E) 07:32:29 435.000/436.395/437.385
AO-85 20 Feb 07:33:12 07:36:22 19° 319° (NW) 07:39:24 145.980
DOVE 4 20 Feb 07:34:41 07:38:23 25° 292° (WNW) 07:42:13 437.250
BEESAT 2 20 Feb 07:46:52 07:50:00 23° 113° (ESE) 07:53:11 435.950
NUDT-PHONESAT 20 Feb 07:48:08 07:50:33 16° 295° (WNW) 07:52:57 437.300
O/OREOS (USA 219) 20 Feb 08:00:47 08:02:21 11° 47° (NE) 08:03:55 437.305
ZACube-1 20 Feb 08:02:34 08:05:28 16° 90° (E) 08:08:20 437.345
HO-68 20 Feb 08:02:54 08:10:05 75° 104° (ESE) 08:17:13 435.675
CUBEBUG 2 20 Feb 08:12:45 08:17:26 54° 99° (E) 08:22:05 437.445
UNISAT 6 20 Feb 08:16:20 08:19:02 16° 62° (ENE) 08:21:47 437.425
PRISM 20 Feb 08:18:09 08:21:54 36° 70° (ENE) 08:25:40 437.425
TIGRISAT 20 Feb 08:18:35 08:21:13 16° 61° (ENE) 08:23:54 435.000
FO-29 20 Feb 08:26:07 08:30:56 20° 53° (NE) 08:36:00 435.910
SEEDS 20 Feb 08:29:48 08:33:58 67° 286° (WNW) 08:38:06 437.485
AAUSAT CUBESAT 2 20 Feb 08:36:51 08:40:59 73° 102° (ESE) 08:45:04 437.432
SO-50 20 Feb 08:38:25 08:42:55 73° 238° (WSW) 08:47:21 436.795
AO-73 20 Feb 08:53:27 08:57:54 49° 99° (E) 09:02:17 145.935
CUTE 1.7 + AOD 2 20 Feb 08:57:22 09:00:46 24° 293° (WNW) 09:04:09 437.475
BEESAT 3 20 Feb 08:59:06 09:02:33 29° 314° (NW) 09:06:03 437.485
UWE-3 20 Feb 09:02:51 09:07:33 75° 285° (WNW) 09:12:11 435.000/436.395/437.385
YUBILEINY 20 Feb 09:07:08 09:10:39 13° 72° (ENE) 09:14:10 435.215
Oscar 11 20 Feb 09:07:49 09:12:07 60° 101° (E) 09:16:23 .
ISS 20 Feb 09:10:19 09:11:54 13° 132° (SE) 09:13:29 437.550
BEESAT 2 20 Feb 09:23:54 09:27:35 36° 312° (NW) 09:31:20 435.950
DELFI C3 20 Feb 09:27:27 09:30:57 30° 96° (E) 09:34:25 145.870
ZACube-1 20 Feb 09:37:34 09:42:04 54° 287° (WNW) 09:46:28 437.345
O/OREOS (USA 219) 20 Feb 09:37:57 09:42:33 80° 67° (ENE) 09:47:08 437.305
Tancredo 1 20 Feb 09:48:02 09:50:55 29° 138° (SE) 09:53:47 437.200
CUBEBUG 2 20 Feb 09:50:19 09:53:38 19° 296° (WNW) 09:56:56 437.445
UNISAT 6 20 Feb 09:50:51 09:55:14 59° 260° (W) 09:59:45 437.425
HO-68 20 Feb 09:51:38 09:57:08 25° 304° (NW) 10:02:37 435.675
TIGRISAT 20 Feb 09:53:00 09:57:23 61° 259° (W) 10:01:55 435.000
PRISM 20 Feb 09:54:19 09:57:18 19° 266° (W) 10:00:17 437.425
FO-29 20 Feb 10:07:51 10:14:44 84° 74° (ENE) 10:22:25 435.910
AAUSAT CUBESAT 2 20 Feb 10:14:32 10:15:52 11° 299° (WNW) 10:17:10 437.432
DUCHIFAT 1 20 Feb 10:23:46 10:27:11 25° 67° (ENE) 10:30:38 145.980
EO-79 20 Feb 10:27:16 10:31:00 31° 69° (ENE) 10:34:46 145.935-145.965
AO-73 20 Feb 10:30:33 10:33:46 19° 296° (WNW) 10:36:56 145.935
POLYITAN 1 20 Feb 10:42:32 10:46:34 46° 71° (ENE) 10:50:40 437.675
ISS 20 Feb 10:44:38 10:47:56 87° 334° (NNW) 10:51:14 437.550
QB50P2 20 Feb 10:45:11 10:49:17 53° 72° (ENE) 10:53:26 145.880/145.840
Oscar 11 20 Feb 10:45:22 10:47:45 15° 298° (WNW) 10:50:08 .
NANOSAT C BR1 20 Feb 10:47:38 10:51:40 48° 72° (ENE) 10:55:45 145.865
AIST 2D 20 Feb 10:53:25 10:56:58 81° 257° (WSW) 11:00:33 435.315
YUBILEINY 20 Feb 10:56:56 11:05:39 68° 93° (E) 11:14:23 435.215
DELFI C3 20 Feb 11:02:33 11:05:36 22° 293° (WNW) 11:08:37 145.870
Oscar 19 20 Feb 11:12:14 11:14:19 12° 57° (ENE) 11:16:23 437.125/150
O/OREOS (USA 219) 20 Feb 11:20:10 11:21:15 11° 263° (W) 11:22:18 437.305
Tancredo 1 20 Feb 11:23:59 11:27:07 43° 336° (NNW) 11:30:15 437.200
BUGSAT 1 20 Feb 11:43:51 11:47:50 63° 74° (ENE) 11:51:53 437.445
ESTCUBE 1 20 Feb 11:48:31 11:53:01 77° 103° (ESE) 11:57:29 437.505/2401.250
SPROUT 20 Feb 11:54:55 11:58:27 24° 95° (E) 12:01:59 437.525
FO-29 20 Feb 11:55:55 12:00:44 20° 275° (W) 12:05:53 435.910
DUCHIFAT 1 20 Feb 11:59:02 12:02:44 30° 264° (W) 12:06:29 145.980
EO-79 20 Feb 12:03:22 12:06:48 24° 266° (W) 12:10:14 145.935-145.965
AO-7 20 Feb 12:19:38 12:23:34 14° 41° (NE) 12:27:30 .
POLYITAN 1 20 Feb 12:19:55 12:22:37 16° 268° (W) 12:25:20 437.675
ISS 20 Feb 12:21:55 12:24:44 25° 347° (NNW) 12:27:33 437.550
QB50P2 20 Feb 12:23:05 12:25:24 14° 269° (W) 12:27:44 145.880/145.840
NANOSAT C BR1 20 Feb 12:25:06 12:27:39 16° 269° (W) 12:30:14 145.865
VELOX 1 20 Feb 12:38:58 12:43:24 87° 102° (ESE) 12:47:49 145.980
AO-85 20 Feb 12:42:30 12:43:59 12° 34° (NE) 12:45:28 145.980
Gurwin Techsat 1B 20 Feb 12:46:51 12:51:55 47° 70° (ENE) 12:57:01 435.225
Oscar 19 20 Feb 12:47:39 12:52:49 84° 75° (ENE) 12:58:00 437.125/150
50 SAT 20 Feb 12:48:33 12:52:03 90° 135° (SE) 12:55:31 437.505
DX 1 20 Feb 12:49:40 12:53:55 50° 100° (E) 12:58:08 434.975-435.025
YUBILEINY 20 Feb 12:55:48 13:03:11 29° 294° (WNW) 13:10:36 435.215
Tancredo 1 20 Feb 13:01:27 13:04:00 21° 356° (N) 13:06:32 437.200
ITAMSAT 1 20 Feb 13:11:09 13:14:23 17° 59° (ENE) 13:17:38 435.822/435.867
UKube-1 20 Feb 13:13:20 13:17:38 66° 102° (ESE) 13:21:55 .
BUGSAT 1 20 Feb 13:22:31 13:23:38 11° 271° (W) 13:24:46 437.445
ESTCUBE 1 20 Feb 13:27:16 13:29:12 13° 300° (WNW) 13:31:06 437.505/2401.250
SPROUT 20 Feb 13:30:34 13:34:24 32° 291° (WNW) 13:38:12 437.525
ISS 20 Feb 13:59:17 14:01:57 22° 8° (N) 14:04:36 437.550
AO-7 20 Feb 14:06:28 14:14:30 54° 63° (ENE) 14:22:34 .
ITUPSAT 1 20 Feb 14:14:37 14:18:18 21° 93° (E) 14:21:56 437.325
VELOX 1 20 Feb 14:18:02 14:19:10 11° 301° (WNW) 14:20:17 145.980
AO-85 20 Feb 14:21:10 14:25:05 77° 54° (NE) 14:29:01 145.980
BEESAT 20 Feb 14:24:47 14:28:52 27° 95° (E) 14:32:55 436.000
DX 1 20 Feb 14:26:53 14:29:43 17° 297° (WNW) 14:32:33 434.975-435.025
Gurwin Techsat 1B 20 Feb 14:27:51 14:32:05 24° 267° (W) 14:36:20 435.225
Oscar 19 20 Feb 14:30:39 14:32:46 12° 272° (W) 14:34:54 437.125/150
Tancredo 1 20 Feb 14:38:11 14:41:01 27° 16° (NNE) 14:43:51 437.200
ITAMSAT 1 20 Feb 14:48:03 14:53:15 73° 257° (WSW) 14:58:29 435.822/435.867
UKube-1 20 Feb 14:51:00 14:53:09 14° 299° (WNW) 14:55:17 .
